[[{"header":{"parameterUnit":"m.s-1","parameterCategory":1,"la1":30.2991,"la2":30.254,"lo1":-89.0895,"lo2":-89.0444,"dy":0.0017,"dx":0.0017,"nx":28,"ny":28,"refTime":"2024-07-08T21:00:00:Z","depth":0,"parameterNumber":2,"parameterNumberName":"U-component_of_WINDS"},"data":[0,0,0,0,0,0,0,0,0,0,0,0,0,0,0,0,0,0,0,0,0,0,0,0,0,0,0,0,0,0,0,0,0,0,0,0,0,0,0,0,0,0,0,0,0,0,0,0,0,0,0,0,0,0,0,0,0,0,5.1395,5.1397,0,5.1548,5.155,5.1551,5.1496,5.1492,5.1489,5.1486,5.1641,5.1649,5.1656,0,0,0,0,0,0,0,0,0,0,0,0,0,5.1052,5.1059,5.1395,5.1397,5.1399,5.1548,5.155,5.1552,5.1496,5.1492,5.1488,5.1484,5.1639,5.1648,5.1657,0,0,0,0,0,0,0,0,0,0,0,0,0,5.1203,5.1061,5.1395,5.1389,5.139,5.1547,5.155,5.1552,5.1497,5.1492,5.1487,5.1482,5.1636,5.1647,5.1658,5.1829,0,0,5.1692,5.1696,0,0,0,0,0,0,0,0,5.1194,5.1215,5.1388,5.139,5.1391,5.1498,5.1486,5.1645,5.1498,5.1457,5.1485,5.1479,5.1598,5.1612,5.1652,5.1837,5.1843,5.1692,5.1699,5.1704,5.1707,0,0,0,0,0,0,0,5.1184,5.1208,5.1456,5.1391,5.1393,5.1378,5.1394,5.1516,5.1554,5.146,5.1456,5.1475,5.1598,5.1641,5.1655,5.1846,5.1692,5.1702,5.1709,5.1713,5.2174,5.2179,0,0,0,0,0,0,5.1173,5.12,5.1451,5.146,5.1278,5.1388,5.1406,5.1469,5.1553,5.1561,5.1479,5.1472,5.1625,5.1642,5.166,5.1863,5.1704,5.1714,5.1721,5.2168,5.2175,5.2181,0,0,0,0,0,0,5.1166,5.1196,5.1445,5.1329,5.136,5.14,5.1471,5.1474,5.1518,5.1567,5.1574,5.1517,5.1621,5.1645,5.1787,5.1867,5.1719,5.1729,5.2162,5.217,5.2178,5.2272,0,0,0,0,0,0,5.1156,5.1194,5.126,5.1331,5.1366,5.157,5.1476,5.1481,5.1537,5.1529,5.1604,5.1612,5.1619,5.177,5.1798,5.188,5.1738,5.2155,5.2166,5.2176,5.2261,5.2282,5.23,0,0,0,0,0,5.1144,5.1282,5.1264,5.1295,5.145,5.1575,5.1595,5.16,5.1544,5.161,5.1641,5.161,5.1855,5.1785,5.1816,5.1902,5.215,5.2163,5.2175,5.2253,5.2278,5.2299,0,0,0,0,0,0,5.122,5.1291,5.1272,5.1437,5.15,5.1565,5.1649,5.1628,5.1708,5.1697,5.17,5.1718,5.1863,5.1897,5.1819,5.207,5.1993,5.2013,5.2042,5.2067,5.2086,5.2073,5.1747,0,0,0,0,0,5.1256,5.1351,5.1408,5.1548,5.158,5.1609,5.1664,5.1662,5.1728,5.1754,5.1796,5.1861,5.1951,5.2012,5.2099,5.2267,5.228,5.2341,5.236,5.2376,5.2392,5.2478,5.2505,5.2223,5.2223,5.2222,0,0,5.1331,5.1381,5.1442,5.1564,5.1613,5.171,5.1632,5.174,5.1811,5.1771,5.1906,5.1939,5.2011,5.2166,5.2236,5.2199,5.2473,5.2392,5.2404,5.2411,5.2494,5.2521,5.2544,5.2231,5.223,5.2228,0,0,5.1516,5.1565,5.1685,5.1735,5.1809,5.1827,5.1856,5.1924,5.1944,5.208,5.205,5.2135,5.2293,5.2344,5.2391,5.2592,5.2564,5.2621,5.272,5.2805,5.2827,5.2847,5.2914,5.2939,5.2637,5.2637,5.2637,0,5.1599,5.1745,5.1749,5.1858,5.1911,5.1878,5.1997,5.2046,5.2145,5.2182,5.2139,5.2333,5.238,5.2544,5.2592,5.2633,5.2663,5.2611,5.2824,5.2843,5.2862,5.2926,5.2952,5.2643,5.2642,5.2642,5.2641,0,5.1842,5.1944,5.2031,5.2126,5.2189,5.2303,5.2322,5.2386,5.2378,5.24,5.2537,5.2591,5.2686,5.2726,5.2721,5.2888,5.2862,5.2822,5.2744,5.2894,5.2955,5.298,5.2652,5.2649,5.2648,5.2646,0,0,5.208,5.2173,5.2205,5.2245,5.2324,5.2402,5.2513,5.2606,5.2658,5.2727,5.2818,5.2951,5.2913,5.2966,5.2966,5.3041,5.3191,5.299,5.2992,5.3022,5.3374,5.3401,5.343,5.3174,5.3179,5.3183,5.3366,0,5.2268,5.2462,5.2467,5.2645,5.2736,5.2705,5.2801,5.2859,5.2882,5.2962,5.2987,5.3079,5.3025,5.3055,5.3128,5.3157,5.3261,5.3145,5.3256,5.326,5.3235,5.3462,5.3493,5.3663,5.3391,5.3395,5.3398,0,5.2514,5.2589,5.2775,5.2836,5.2875,5.2962,5.3044,5.3122,5.3186,5.3197,5.3255,5.3242,5.3353,5.3273,5.3424,5.3344,5.339,5.3411,5.3418,5.3426,5.3336,5.3473,5.3719,5.3743,5.3436,5.3433,5.343,0,5.2663,5.2811,5.294,5.2977,5.3053,5.3114,5.3148,5.3207,5.326,5.3333,5.3367,5.3453,5.3498,5.3564,5.3574,5.3516,5.3724,5.3646,5.3733,5.3733,5.3776,5.3773,5.4029,5.3812,5.3812,5.3811,5.3811,0,5.2871,5.2985,5.3008,5.3087,5.3213,5.3217,5.3341,5.3371,5.3422,5.3505,5.3485,5.3562,5.3573,5.3653,5.3662,5.3782,5.3805,5.3814,5.3815,5.3815,5.3813,5.3842,5.3829,5.3818,5.3816,5.3815,5.3814,0,5.3059,5.3079,5.3217,5.3277,5.3294,5.3384,5.3434,5.3509,5.3529,5.3634,5.3658,5.369,5.3783,5.38,5.391,5.3915,5.4058,5.4049,5.4037,5.4034,5.4119,5.4109,5.44,5.4437,5.42,5.4202,5.4204,0,5.3189,5.3275,5.3344,5.3397,5.3434,5.3522,5.3576,5.3583,5.364,5.3716,5.3781,5.3871,5.3944,5.4093,5.4125,5.4208,5.4197,5.4294,5.421,5.4205,5.4194,5.4187,5.4194,5.4309,5.4311,5.4314,5.4315,0,5.3415,5.342,5.3499,5.3581,5.3646,5.3711,5.3773,5.3818,5.3832,5.3897,5.3991,5.4047,5.4158,5.4247,5.4329,5.4362,5.434,5.4342,5.4365,5.4364,5.4352,5.4355,5.4076,5.4334,5.4332,5.4331,5.433,5.4329,5.3575,5.3649,5.3708,5.3795,5.3842,5.3899,5.397,5.3998,5.4077,5.4167,5.4167,5.4268,5.4326,5.4434,5.4473,5.4551,5.452,5.4556,5.4565,5.4572,5.4578,5.4342,5.4567,5.4566,5.4566,5.4566,5.4565,0,5.3797,5.3833,5.3914,5.3999,5.4067,5.4041,5.4107,5.4165,5.4255,5.4311,5.4382,5.4487,5.4573,5.461,5.4694,5.4749,5.474,5.477,5.4764,5.4771,5.4603,5.4572,5.4775,5.4775,5.4775,5.4775,5.4775,5.4775,5.3921,5.4043,5.4054,5.4197,5.4232,5.4331,5.437,5.4422,5.4466,5.4585,5.4655,5.4679,5.4726,5.4812,5.4888,5.4897,5.4927,5.496,5.4964,5.4805,5.4784,5.4764,5.4734,5.4968,5.4968,5.5125,5.5126,5.5127]},{"header":{"parameterUnit":"m.s-1","parameterCategory":1,"la1":30.2991,"la2":30.254,"lo1":-89.0895,"lo2":-89.0444,"dy":0.0017,"dx":0.0017,"nx":28,"ny":28,"refTime":"2024-07-08T21:00:00:Z","depth":0,"parameterNumber":3,"parameterNumberName":"V-component_of_WINDS"},"data":[0,0,0,0,0,0,0,0,0,0,0,0,0,0,0,0,0,0,0,0,0,0,0,0,0,0,0,0,0,0,0,0,0,0,0,0,0,0,0,0,0,0,0,0,0,0,0,0,0,0,0,0,0,0,0,0,0,0,2.8569,2.857,0,2.8674,2.8675,2.8677,2.865,2.8648,2.8646,2.8644,2.8752,2.8756,2.8761,0,0,0,0,0,0,0,0,0,0,0,0,0,2.8343,2.8347,2.8569,2.857,2.8571,2.8674,2.8675,2.8677,2.8651,2.8648,2.8646,2.8643,2.875,2.8756,2.8762,0,0,0,0,0,0,0,0,0,0,0,0,0,2.8444,2.8348,2.8568,2.8571,2.8572,2.8674,2.8676,2.8677,2.8651,2.8648,2.8645,2.8642,2.8748,2.8755,2.8762,2.8868,0,0,2.8784,2.8787,0,0,0,0,0,0,0,0,2.8438,2.8452,2.8569,2.8571,2.8572,2.8646,2.8635,2.8741,2.8652,2.8621,2.8644,2.8641,2.8719,2.8728,2.8755,2.8873,2.8878,2.8785,2.8789,2.8792,2.8794,0,0,0,0,0,0,0,2.8431,2.8447,2.861,2.8571,2.8573,2.8566,2.8577,2.8655,2.8686,2.8624,2.8622,2.8635,2.8719,2.8748,2.8757,2.888,2.8785,2.8791,2.8796,2.8798,2.9088,2.9091,0,0,0,0,0,0,2.8423,2.8442,2.8607,2.8614,2.8496,2.8572,2.8585,2.8625,2.8685,2.8691,2.8637,2.8633,2.8737,2.8749,2.8761,2.8888,2.8792,2.8799,2.8803,2.9085,2.9089,2.9093,0,0,0,0,0,0,2.8418,2.8438,2.8603,2.8527,2.8548,2.8579,2.8626,2.8629,2.8658,2.8696,2.8701,2.8661,2.8735,2.8751,2.8841,2.8891,2.8802,2.8809,2.9081,2.9086,2.9091,2.9143,0,0,0,0,0,0,2.8412,2.8436,2.8478,2.8528,2.8552,2.8682,2.8629,2.8633,2.867,2.8666,2.8719,2.8725,2.8734,2.8831,2.8849,2.89,2.8814,2.9077,2.9083,2.9089,2.9137,2.915,2.916,0,0,0,0,0,2.8404,2.8488,2.848,2.85,2.8604,2.8685,2.8699,2.8707,2.8675,2.8716,2.874,2.8724,2.8883,2.884,2.886,2.8914,2.9073,2.9081,2.9089,2.9132,2.9147,2.916,0,0,0,0,0,0,2.8443,2.8495,2.8486,2.859,2.8633,2.8681,2.8733,2.8723,2.8777,2.8771,2.8779,2.8791,2.8883,2.8908,2.8859,2.9019,2.8973,2.8985,2.9,2.9014,2.9025,2.9018,2.882,0,0,0,0,0,2.8463,2.8526,2.8568,2.8655,2.8677,2.8701,2.8737,2.874,2.8785,2.8803,2.8834,2.8878,2.8938,2.8977,2.9035,2.914,2.9151,2.9187,2.9198,2.9208,2.9218,2.9274,2.929,2.9118,2.9118,2.9118,0,0,2.8507,2.8543,2.8582,2.8664,2.8698,2.8761,2.8717,2.8786,2.8833,2.8814,2.8901,2.8925,2.8975,2.9073,2.9118,2.9096,2.9268,2.9217,2.9224,2.923,2.9284,2.93,2.9314,2.9123,2.9122,2.9121,0,0,2.8618,2.8652,2.8728,2.8763,2.8815,2.883,2.8848,2.8897,2.8912,2.8999,2.8986,2.9041,2.9145,2.918,2.9212,2.9334,2.9321,2.9353,2.9413,2.9467,2.9481,2.9493,2.9536,2.9551,2.9363,2.9363,2.9363,0,2.8666,2.8761,2.8768,2.8839,2.8874,2.8859,2.8936,2.8969,2.9037,2.9062,2.9036,2.9164,2.9197,2.9303,2.9332,2.9359,2.9379,2.9347,2.9478,2.9491,2.9502,2.9543,2.9559,2.9366,2.9366,2.9366,2.9365,0,2.8816,2.8882,2.8937,2.9003,2.9045,2.9118,2.9135,2.9177,2.9175,2.9193,2.9282,2.932,2.9384,2.9409,2.9409,2.9514,2.9499,2.9476,2.9431,2.9522,2.956,2.9576,2.9371,2.937,2.9369,2.9368,0,0,2.8957,2.9024,2.9044,2.9073,2.9128,2.9179,2.925,2.9313,2.9348,2.9395,2.9454,2.9541,2.952,2.9556,2.9559,2.9607,2.97,2.9578,2.9579,2.9599,2.9818,2.9835,2.9853,2.9692,2.9695,2.9697,2.9813,0,2.9072,2.9199,2.9206,2.9321,2.9381,2.9367,2.9429,2.9469,2.9487,2.954,2.956,2.9621,2.9588,2.961,2.9657,2.9679,2.9744,2.9671,2.9747,2.9749,2.9734,2.9873,2.9892,2.9999,2.9829,2.9831,2.9833,0,2.9225,2.9276,2.9396,2.9441,2.9467,2.9522,2.9579,2.9631,2.9675,2.9685,2.9724,2.972,2.9792,2.9744,2.9843,2.9793,2.9824,2.9839,2.9844,2.9851,2.9797,2.9884,3.0034,3.005,2.9857,2.9855,2.9853,0,2.9314,2.9412,2.9497,2.9522,2.9577,2.9616,2.9641,2.9682,2.9719,2.9769,2.9792,2.985,2.9881,2.9925,2.9936,2.99,3.0035,2.9988,3.0044,3.0044,3.0073,3.0071,3.023,3.0094,3.0094,3.0093,3.0093,0,2.9442,2.9516,2.9537,2.9589,2.9671,2.9679,2.9759,2.9781,2.9818,2.9873,2.9864,2.9916,2.9928,2.9981,2.999,3.007,3.0085,3.0094,3.0095,3.0095,3.0093,3.0115,3.0108,3.0098,3.0097,3.0096,3.0095,0,2.9556,2.9573,2.9664,2.9708,2.9721,2.9779,2.9817,2.9866,2.9882,2.9952,2.9969,2.9994,3.0057,3.0072,3.0147,3.0153,3.0247,3.0242,3.0232,3.0232,3.0287,3.0281,3.0466,3.049,3.0338,3.0339,3.034,0,2.9637,2.9693,2.9743,2.9779,2.9806,2.9864,2.9901,2.991,2.9949,3.0003,3.0046,3.0107,3.0157,3.0258,3.0282,3.0339,3.0335,3.0395,3.0343,3.034,3.0335,3.0331,3.0336,3.0405,3.0407,3.0408,3.0409,0,2.9778,2.9783,2.9837,2.9894,2.9938,2.9983,3.0026,3.0056,3.0071,3.0115,3.0179,3.0217,3.0293,3.0354,3.0411,3.0435,3.0425,3.0425,3.0441,3.0441,3.0433,3.0437,3.0259,3.0421,3.042,3.0419,3.0418,3.0418,2.9877,2.9926,2.9968,3.0028,3.0061,3.0101,3.0149,3.0171,3.0225,3.0287,3.0289,3.0358,3.04,3.0475,3.0503,3.0556,3.0538,3.0561,3.0567,3.0572,3.0577,3.0424,3.0567,3.0566,3.0566,3.0566,3.0566,0,3.0017,3.0043,3.0098,3.0158,3.0205,3.0191,3.0237,3.0277,3.0338,3.0378,3.0427,3.0499,3.0558,3.0587,3.0644,3.0682,3.0678,3.0696,3.0694,3.0699,3.0591,3.0571,3.0698,3.0698,3.0698,3.0698,3.0698,3.0698,3.0095,3.0177,3.0187,3.0284,3.031,3.0378,3.0405,3.0442,3.0473,3.0555,3.0603,3.0622,3.0657,3.0717,3.0769,3.0776,3.0797,3.0818,3.0823,3.0721,3.0707,3.0694,3.0676,3.0823,3.0823,3.0927,3.0927,3.0928]}]]